GW2438 Weather Reports


Display with metric or nautical units.
time (UTC)temp
F
wind
direction
speed
MPH
gust
MPH
rain 1hr
in
rain 24hr
in
rain mn
in
humidity
%
barometer
mb
20260507144622 52 191 1.0 2.0 0.00 0.00 0.00 83 1021.2
20260507143620 51 169 1.0 2.0 0.00 0.00 0.00 83 1021.2
20260507142618 51 152 1.0 2.0 0.00 0.00 0.00 82 1021.2
20260507141556 51 153 1.0 2.0 0.00 0.00 0.00 82 1021.1
20260507140555 51 161 1.0 3.0 0.00 0.00 0.00 82 1021.1
20260507135553 51 179 0.0 1.0 0.00 0.00 0.00 82 1020.9
20260507134612 51 180 0.0 1.0 0.00 0.00 0.00 82 1020.9
20260507133550 51 203 0.0 1.0 0.00 0.00 0.00 82 1020.7
20260507132608 50 220 0.0 2.0 0.00 0.00 0.00 82 1020.9
20260507131546 50 195 0.0 2.0 0.00 0.00 0.00 82 1020.8
20260507130545 51 211 1.0 3.0 0.00 0.00 0.00 81 1020.5
20260507125542 51 214 1.0 3.0 0.00 0.00 0.00 81 1020.7
20260507124541 51 193 0.0 1.0 0.00 0.00 0.00 81 1020.8
20260507123540 51 158 0.0 2.0 0.00 0.00 0.00 82 1020.8
20260507122558 51 221 0.0 1.0 0.00 0.00 0.00 81 1020.8
20260507121536 51 218 0.0 2.0 0.00 0.00 0.00 82 1020.8
20260507120534 51 214 0.0 1.0 0.00 0.00 0.00 82 1020.9
20260507115532 51 211 0.0 1.0 0.00 0.00 0.00 82 1021.1
20260507114551 51 173 0.0 1.0 0.00 0.00 0.00 81 1021.2
20260507113529 51 164 0.0 1.0 0.00 0.00 0.00 81 1021.3
20260507112527 51 203 0.0 1.0 0.00 0.00 0.00 81 1021.3
20260507111525 51 0.0 0.0 0.00 0.00 0.00 81 1021.3
20260507110524 51 167 0.0 1.0 0.00 0.00 0.00 81 1021.3
20260507105522 51 216 0.0 1.0 0.00 0.00 0.00 81 1021.3
20260507104521 51 175 0.0 2.0 0.00 0.00 0.00 81 1021.3
20260507103519 51 143 1.0 2.0 0.00 0.00 0.00 81 1021.4
20260507102537 51 150 1.0 1.0 0.00 0.00 0.00 82 1021.4
20260507101615 51 0.0 0.0 0.00 0.00 0.00 82 1021.3
20260507100614 52 0.0 0.0 0.00 0.00 0.00 82 1021.4
20260507095632 52 142 0.0 1.0 0.00 0.00 0.00 82 1021.3
20260507094610 52 187 0.0 1.0 0.00 0.00 0.00 82 1021.2
20260507093649 52 227 1.0 2.0 0.00 0.00 0.00 82 1021.2
20260507092607 52 237 0.0 2.0 0.00 0.00 0.00 82 1021.4
20260507091625 52 223 1.0 3.0 0.00 0.00 0.00 82 1021.3
20260507090603 52 228 1.0 3.0 0.00 0.00 0.00 83 1021.3
20260507085601 52 216 0.0 2.0 0.00 0.00 0.00 84 1021.4
20260507084600 52 224 1.0 3.0 0.00 0.00 0.00 84 1021.3
20260507083559 52 223 2.0 4.0 0.00 0.00 0.00 84 1021.4
20260507082557 52 243 0.0 1.0 0.00 0.00 0.00 84 1021.4
20260507081555 52 215 1.0 2.0 0.00 0.00 0.00 85 1021.4
20260507080553 52 221 1.0 3.0 0.00 0.00 0.00 85 1021.4
20260507075552 52 215 1.0 4.0 0.00 0.00 0.00 86 1021.4
20260507074550 52 218 0.0 2.0 0.00 0.00 0.00 86 1021.5
20260507073548 52 222 1.0 3.0 0.00 0.00 0.00 86 1021.4
20260507072546 52 176 1.0 2.0 0.00 0.00 0.00 86 1021.4
20260507071545 52 238 2.0 4.0 0.00 0.00 0.00 86 1021.5
20260507070542 52 223 1.0 3.0 0.00 0.00 0.00 86 1021.4
20260507065601 52 219 1.0 4.0 0.00 0.00 0.00 86 1021.4
20260507064539 52 247 2.0 4.0 0.00 0.00 0.00 86 1021.4
20260507063537 52 237 2.0 6.0 0.00 0.00 0.00 85 1021.3
20260507062536 52 231 1.0 3.0 0.00 0.00 0.00 85 1021.4
20260507061535 52 226 2.0 4.0 0.00 0.00 0.00 85 1021.5
20260507060532 53 246 1.0 3.0 0.00 0.00 0.00 84 1021.5
20260507055530 53 219 1.0 2.0 0.00 0.00 0.00 83 1021.5
20260507054529 53 249 3.0 6.0 0.00 0.00 0.00 83 1021.4
20260507053548 53 244 3.0 4.0 0.00 0.00 0.00 82 1021.4
20260507052526 54 246 3.0 4.0 0.00 0.00 0.00 81 1021.6
20260507051524 54 263 1.0 6.0 0.00 0.00 0.00 80 1021.4
20260507050522 54 250 2.0 4.0 0.00 0.00 0.00 79 1021.5
20260507045520 55 253 3.0 7.0 0.00 0.00 0.00 79 1021.4
20260507044519 55 255 2.0 6.0 0.00 0.00 0.00 78 1021.2
20260507043516 55 259 3.0 6.0 0.00 0.00 0.00 78 1021.2
20260507042615 55 239 2.0 4.0 0.00 0.00 0.00 77 1021.4
20260507041654 55 244 0.0 2.0 0.00 0.00 0.00 77 1021.4
20260507040611 55 254 1.0 3.0 0.00 0.00 0.00 77 1021.3
20260507035610 55 255 2.0 4.0 0.00 0.00 0.00 77 1021.1
20260507034609 55 255 2.0 6.0 0.00 0.00 0.00 77 1021.1
20260507033606 55 243 2.0 6.0 0.00 0.00 0.00 76 1020.9
20260507032605 56 248 2.0 6.0 0.00 0.00 0.00 76 1021.0
20260507031603 56 248 2.0 4.0 0.00 0.00 0.00 76 1020.8
20260507030601 56 241 4.0 9.0 0.00 0.00 0.00 75 1020.7
20260507025559 56 237 3.0 7.0 0.00 0.00 0.00 75 1020.7
20260507024558 56 272 2.0 7.0 0.00 0.00 0.00 74 1020.6
20260507023636 57 279 2.0 6.0 0.00 0.00 0.00 74 1020.6
20260507022554 57 245 3.0 6.0 0.00 0.00 0.00 73 1020.5
20260507021553 58 248 3.0 8.0 0.00 0.00 0.00 72 1020.6
20260507020551 58 256 4.0 8.0 0.00 0.00 0.00 72 1020.6
20260507015549 58 246 3.0 7.0 0.00 0.00 0.00 71 1020.6
20260507014548 59 242 3.0 8.0 0.00 0.00 0.00 71 1020.5
20260507013546 59 234 5.0 9.0 0.00 0.00 0.00 70 1020.6
20260507012604 60 247 3.0 7.0 0.00 0.00 0.00 71 1020.6
20260507011542 60 267 3.0 7.0 0.00 0.00 0.00 70 1020.5
20260507010541 60 241 1.0 7.0 0.00 0.00 0.00 69 1020.4
20260507005559 61 245 4.0 7.0 0.00 0.00 0.00 69 1020.6
20260507004557 61 267 2.0 6.0 0.00 0.00 0.00 69 1020.6
20260507003555 61 250 3.0 4.0 0.00 0.00 0.00 69 1020.6
20260507002534 61 251 2.0 6.0 0.00 0.00 0.00 68 1020.5
20260507001532 62 247 5.0 13.0 0.00 0.00 0.00 68 1020.6
20260507000531 62 233 3.0 7.0 0.00 0.00 0.00 66 1020.6
20260506235528 62 253 3.0 6.0 0.00 0.00 0.00 66 1020.6
20260506234527 63 262 3.0 7.0 0.00 0.00 0.00 65 1020.5
20260506233545 64 259 3.0 8.0 0.00 0.00 0.00 62 1020.6
20260506232524 65 255 4.0 7.0 0.00 0.00 0.00 63 1020.6
20260506231522 64 239 4.0 8.0 0.00 0.00 0.00 64 1020.6
20260506230520 64 247 4.0 9.0 0.00 0.00 0.00 64 1020.6
20260506225519 64 250 3.0 7.0 0.00 0.00 0.00 63 1020.7
20260506224517 65 244 4.0 7.0 0.00 0.00 0.00 64 1020.7
20260506223615 65 236 5.0 9.0 0.00 0.00 0.00 64 1020.7
20260506222613 64 253 3.0 7.0 0.00 0.00 0.00 64 1020.9
20260506221632 65 233 5.0 11.0 0.00 0.00 0.00 64 1021.0
20260506220610 64 233 3.0 6.0 0.00 0.00 0.00 66 1020.9
20260506215608 63 250 5.0 10.0 0.00 0.00 0.00 66 1020.9
20260506214606 63 256 3.0 7.0 0.00 0.00 0.00 67 1021.0
20260506213605 62 249 3.0 8.0 0.00 0.00 0.00 67 1021.0
20260506212603 62 270 2.0 6.0 0.00 0.00 0.00 67 1021.0
20260506211621 62 270 2.0 7.0 0.00 0.00 0.00 69 1020.9
20260506210600 62 258 2.0 7.0 0.00 0.00 0.00 69 1021.0
20260506205558 61 236 3.0 6.0 0.00 0.00 0.00 69 1020.9
20260506204556 61 260 2.0 7.0 0.00 0.00 0.00 68 1020.9
20260506203555 61 268 1.0 3.0 0.00 0.00 0.00 70 1020.9
20260506202553 61 231 2.0 4.0 0.00 0.00 0.00 69 1020.7
20260506201651 61 264 3.0 6.0 0.00 0.00 0.00 70 1020.7
20260506200549 61 246 3.0 7.0 0.00 0.00 0.00 70 1020.7
20260506195548 61 269 4.0 8.0 0.00 0.00 0.00 69 1020.7
20260506194546 62 262 5.0 11.0 0.00 0.00 0.00 70 1020.5
20260506193544 61 233 4.0 9.0 0.00 0.00 0.00 71 1020.5
20260506192543 61 264 2.0 4.0 0.00 0.00 0.00 72 1020.5
20260506191542 60 229 4.0 9.0 0.00 0.00 0.00 74 1020.5
20260506190539 59 214 2.0 7.0 0.00 0.00 0.00 75 1020.5
20260506185538 59 238 1.0 2.0 0.00 0.00 0.00 76 1020.5
20260506184556 58 239 1.0 2.0 0.00 0.00 0.00 75 1020.6
20260506183534 59 270 1.0 3.0 0.00 0.00 0.00 74 1020.6
20260506182533 60 214 3.0 8.0 0.00 0.00 0.00 75 1020.5
20260506181531 60 199 2.0 4.0 0.00 0.00 0.00 77 1020.4
20260506180529 59 235 1.0 4.0 0.00 0.00 0.00 77 1020.3
20260506175528 58 260 1.0 4.0 0.00 0.00 0.00 77 1020.4
20260506174526 58 285 1.0 4.0 0.00 0.00 0.00 76 1020.4
20260506173524 59 261 0.0 2.0 0.00 0.00 0.00 77 1020.3
20260506172542 58 231 2.0 8.0 0.00 0.00 0.00 78 1020.4
20260506171541 58 228 3.0 7.0 0.00 0.00 0.00 78 1020.4
20260506170519 57 219 4.0 8.0 0.00 0.00 0.00 78 1020.3
20260506165539 57 183 4.0 7.0 0.00 0.00 0.00 78 1020.3
20260506164516 57 240 4.0 9.0 0.00 0.00 0.00 79 1020.3
20260506163619 57 242 4.0 8.0 0.00 0.00 0.00 79 1020.0
20260506162613 57 244 4.0 7.0 0.00 0.00 0.00 80 1020.0
20260506161611 56 200 2.0 4.0 0.00 0.00 0.00 82 1019.9
20260506160609 56 229 2.0 3.0 0.00 0.00 0.00 82 1020.1
20260506155608 55 230 3.0 6.0 0.00 0.00 0.00 83 1020.1
20260506154606 55 236 1.0 3.0 0.00 0.00 0.00 83 1020.1
20260506153604 55 235 2.0 6.0 0.00 0.00 0.00 84 1020.1
20260506152602 55 215 1.0 3.0 0.00 0.00 0.00 85 1019.9
20260506151621 55 227 1.0 2.0 0.00 0.00 0.00 85 1019.8
20260506150559 54 217 1.0 3.0 0.00 0.00 0.00 85 1020.0
20260506145618 54 225 2.0 6.0 0.00 0.00 0.00 85 1020.0